CUTE-1.7+APD II (CO-65)

Last updated on Mon Nov 03 2025 00:03:21 GMT+0000 (Coordinated Universal Time)

1 32785U 08021C 25306.52533402 .00006525 00000+0 44777-3 0 9995 2 32785 97.8040 279.0766 0011821 80.0505 280.2055 15.06294076951033
UTC large
Height (km)
Speed (km/s)
/
Latitude / Longitude
Inclination (degrees)
Orbital Period (minutes)
Azimuth
Elevation
Range (km)
Doppler Factor

Next 0 passes for location: London (51.5072 / 0.1276)

Sorry there are no passes over London.